This demonstration page uses our WeatherBlox Daily Observations layout. Learn more.

Left ArrowRight Arrow

Hourly Observations for December 11, 2020

Temp ( °F °C ) Dew Point ( °F °C ) Humidity (%) Winds ( mph kmh ) Pressure ( in mb ) Visibility ( mi km ) Precip ( " mm )
12:53 am 00:53 Clear 38 3.3 34 1.1 86 86 E 5 7 29.99 1016 10 16 0.00 0.00
1:53 am 01:53 Clear 41 5 35 1.7 79 79 E 5 7 29.99 1016 10 16 0.00 0.00
2:53 am 02:53 Clear 32 0 30 -1.1 92 92 Calm 30.01 1016 9 14 0.00 0.00
3:53 am 03:53 Clear 30 -1.1 27 -2.8 88 88 Calm 30.02 1017 10 16 0.00 0.00
4:53 am 04:53 Clear with Mist and Fog 28 -2.2 26 -3.3 92 92 E 3 6 30.03 1017 6 10 0.00 0.00
5:53 am 05:53 Clear 36 2.2 33 0.6 89 89 ESE 5 7 30.04 1017 10 16 0.00 0.00
6:53 am 06:53 Clear 37 2.8 34 1.1 89 89 ESE 7 11 30.04 1017 10 16 0.00 0.00
7:53 am 07:53 Sunny 37 2.8 34 1.1 89 89 ESE 5 7 30.04 1017 10 16 0.00 0.00
8:53 am 08:53 Sunny 41 5 36 2.2 82 82 VRB 3 6 30.04 1017 10 16 0.00 0.00
9:53 am 09:53 Sunny 50 10 40 4.4 68 68 ESE 5 7 30.04 1017 10 16 0.00 0.00
10:53 am 10:53 Sunny 57 13.9 41 5 55 55 VRB 3 6 30.04 1017 10 16 0.00 0.00
11:53 am 11:53 Sunny 62 16.7 41 5 46 46 VRB 5 7 30.02 1017 10 16 0.00 0.00
12:53 pm 12:53 Sunny 65 18.3 40 4.4 40 40 SW 10 17 30.01 1016 10 16 0.00 0.00
1:53 pm 13:53 Sunny 64 17.8 40 4.4 41 41 SSW 8 13 29.96 1015 10 16 0.00 0.00
2:53 pm 14:53 Sunny 66 18.9 40 4.4 39 39 VRB 5 7 29.95 1014 10 16 0.00 0.00
3:53 pm 15:53 Sunny 64 17.8 37 2.8 37 37 VRB 5 7 29.94 1014 10 16 0.00 0.00
4:53 pm 16:53 Sunny 61 16.1 37 2.8 41 41 SW 3 6 29.95 1014 10 16 0.00 0.00
5:53 pm 17:53 Clear 50 10 37 2.8 61 61 Calm 29.96 1014 10 16 0.00 0.00
6:53 pm 18:53 Clear 53 11.7 38 3.3 57 57 Calm 29.95 1014 10 16 0.00 0.00
7:53 pm 19:53 Clear 50 10 38 3.3 63 63 Calm 29.95 1014 10 16 0.00 0.00
8:53 pm 20:53 Clear 58 14.4 42 5.6 56 56 VRB 6 9 29.93 1014 10 16 0.00 0.00
9:53 pm 21:53 Clear 59 15 44 6.7 58 58 S 7 11 29.92 1013 10 16 0.00 0.00
10:53 pm 22:53 Clear 57 13.9 43 6.1 60 60 S 3 6 29.92 1013 10 16 0.00 0.00
11:53 pm 23:53 Cloudy 54 12.2 42 5.6 64 64 ESE 3 6 29.93 1014 10 16 0.00 0.00

Powered by AerisWeather